Location: Quebec
(46.8000°N, 71.2500°W)
Time: 13:23:35
(UTC-04:00)

Tiangong 1 - Pass Details

Date: 12 October 2017
Orbit: 292 x 320 km, 42.8° (Epoch: 22 October)

Event Time Altitude Azimuth Distance (km) Brightness Sun altitude
Rises 19:43:15 0° 266° (W) 2,041 6.3 -17.9°
Reaches altitude 10° 19:45:29 10° 250° (WSW) 1,203 4.5 -18.3°
Enters shadow 19:47:32 22° 201° (SSW) 745 2.6 -18.7°
